GFSMW_sfc_30mbdewp_024.txt.gz
Dewpoint
43 44 45 45 43 44 45 45 44 44 44 45 43 42 42 43 44 44 43 41 39 39 38 38 39 40 39 40 41 42 39 38 42 42 41 42 42 42 42 42 44 44 47
42 43 44 44 44 43 43 42 42 42 42 43 43 43 43 43 43 43 40 39 38 38 36 38 38 39 39 39 40 40 41 41 43 41 41 38 38 40 35 39 38 42 43
41 41 41 43 43 42 42 41 41 42 42 42 42 43 43 42 42 41 39 38 38 37 37 38 40 41 42 42 43 43 41 41 41 40 38 35 33 34 35 33 37 37 39
42 41 41 41 41 42 42 42 42 43 43 42 42 41 41 40 41 39 37 36 38 37 37 40 41 41 42 41 42 42 41 40 39 39 37 37 37 32 30 33 32 35 34
41 41 42 42 42 42 42 42 42 43 43 43 43 42 41 40 40 37 36 35 36 36 39 38 41 41 40 40 40 38 38 39 37 37 36 35 35 35 33 29 31 32 34
41 42 43 43 43 43 43 42 41 42 43 43 42 40 39 38 36 35 34 35 36 37 36 37 41 40 39 39 39 39 38 37 37 37 36 35 34 32 31 31 30 29 31
40 41 41 42 43 42 42 41 40 42 43 42 40 40 38 37 35 34 33 33 35 35 35 36 38 39 39 39 38 38 36 36 36 36 36 36 36 35 33 33 32 31 30
38 40 40 41 41 41 41 41 40 40 41 40 38 39 39 37 35 35 34 36 34 34 34 35 38 39 39 38 38 37 36 37 36 36 36 37 36 38 35 34 32 30 30
37 39 39 39 40 40 38 37 37 38 37 37 36 35 37 36 35 35 36 35 34 34 33 33 35 38 38 38 37 36 35 35 35 34 36 36 35 36 37 36 34 31 28
38 38 38 39 39 39 38 38 37 35 35 35 34 32 31 34 35 36 35 34 33 33 32 31 33 33 36 36 36 35 34 33 33 35 29 29 30 32 34 34 33 32 31
38 39 38 37 36 35 33 34 33 33 33 32 32 31 30 31 35 35 34 34 33 33 32 31 31 26 26 26 28 29 29 27 24 23 23 22 23 23 24 25 25 28 30
38 37 37 36 33 32 30 32 30 31 32 32 30 29 29 29 34 34 34 34 32 32 29 29 23 23 23 24 24 25 24 23 22 22 22 21 20 21 21 22 23 24 25
37 36 35 35 34 31 29 28 28 29 32 31 30 28 28 28 30 32 33 34 33 32 32 24 22 22 24 24 24 23 23 22 22 22 22 21 21 20 21 22 23 24 24
36 35 34 34 32 29 28 26 25 28 30 30 28 30 31 32 32 31 32 33 36 35 32 23 22 23 24 23 22 22 22 22 22 22 22 21 21 21 22 23 24 25 23
35 34 34 32 31 28 25 24 24 25 26 25 29 30 31 31 30 31 33 36 35 34 31 24 23 24 23 22 23 23 23 22 21 21 21 19 19 17 18 23 24 27 25
34 34 33 32 32 30 23 23 21 22 22 25 29 32 32 33 34 35 36 35 36 35 26 25 24 24 23 25 25 25 24 23 22 21 20 20 19 18 19 21 22 22 23
34 34 33 33 31 22 21 20 20 21 21 29 32 33 33 32 32 34 36 35 33 32 31 25 24 24 24 26 27 28 27 25 24 22 22 21 18 20 21 22 22 23 23
31 30 26 23 22 21 19 20 19 20 28 31 31 33 33 33 35 34 34 33 33 31 25 25 25 24 23 27 28 27 26 25 24 23 22 20 19 20 20 22 25 25 25
31 22 18 19 19 18 19 19 20 24 27 27 28 30 31 32 35 34 33 33 31 25 26 26 24 24 24 23 22 26 23 22 20 21 21 19 19 20 23 23 23 23 22
20 15 15 17 17 17 18 19 22 25 26 26 27 29 32 32 33 34 32 31 27 26 25 24 24 23 20 19 20 19 22 19 19 20 18 18 20 22 23 24 23 21 20
15 16 17 17 18 19 21 23 25 25 26 27 27 27 28 29 30 32 32 28 26 25 23 20 21 20 20 18 17 17 18 18 20 18 18 19 21 25 23 23 24 23 24
16 17 18 18 20 23 24 24 25 25 27 27 26 26 27 26 24 25 24 24 23 22 21 17 17 19 19 16 17 17 16 17 19 19 20 22 21 22 24 24 25 24 25
17 19 19 20 22 24 26 25 26 26 27 26 26 26 26 26 24 21 22 22 22 21 20 19 17 18 18 16 18 19 18 19 20 21 22 19 20 21 22 22 23 23 23
19 20 21 22 23 26 27 27 27 27 27 26 25 26 23 24 25 22 22 22 20 20 20 19 18 16 16 15 17 20 18 20 21 20 21 19 19 20 21 21 21 22 22
22 23 24 25 26 28 28 29 28 28 26 25 25 23 24 24 25 22 23 23 22 21 20 20 18 16 15 16 20 18 18 18 17 16 17 16 16 16 16 17 18 19 21
24 25 27 27 28 29 28 29 29 28 26 25 24 23 22 23 26 24 22 23 24 25 26 24 18 17 19 19 18 18 15 13 14 15 15 14 15 14 15 15 15 16 18

GFSMW_sfc_30mbdewp_027.txt.gz
Dewpoint
44 46 46 47 49 47 47 48 47 46 46 46 44 43 42 43 41 39 39 38 38 38 37 39 40 40 40 41 42 41 41 40 42 42 38 39 41 38 35 36 37 40 41
42 43 44 46 45 45 45 42 42 42 42 42 44 43 43 42 40 38 38 38 37 37 39 40 40 41 40 40 42 42 41 42 41 38 38 32 31 36 33 34 32 37 39
41 43 44 44 44 41 40 40 41 41 42 43 43 43 43 43 39 38 37 38 37 38 39 40 40 39 40 39 41 41 39 38 40 39 36 33 30 33 33 32 34 34 35
43 43 43 42 41 41 41 42 42 42 42 42 41 40 39 40 40 37 37 36 37 38 38 38 39 39 40 39 39 39 38 37 36 36 37 37 36 32 29 32 31 33 32
42 42 42 41 42 42 42 42 43 43 43 43 42 42 40 39 38 37 35 35 36 37 36 37 40 39 39 39 38 38 37 37 36 36 36 35 34 34 33 28 29 30 31
41 41 42 43 43 43 41 41 43 43 43 42 42 40 39 37 36 35 34 34 36 36 35 37 40 39 38 38 38 38 37 36 36 36 35 35 34 31 33 31 30 30 31
41 42 43 43 43 42 41 41 41 42 42 41 40 39 38 37 35 33 33 32 34 35 34 34 38 38 38 39 39 38 36 35 34 35 34 35 35 36 35 32 31 31 32
40 41 42 41 41 41 41 40 41 40 41 39 39 39 37 36 35 34 34 33 34 34 34 32 37 38 38 39 38 37 36 35 34 34 33 34 35 35 35 33 32 28 29
38 39 40 39 39 38 38 37 38 40 39 37 37 37 38 37 35 35 35 35 36 34 34 32 35 36 38 38 37 36 35 34 34 33 34 32 29 27 32 31 34 29 25
38 38 38 38 38 38 36 36 37 36 35 34 34 33 33 34 36 36 35 35 35 34 34 32 33 34 33 35 34 33 32 32 31 31 24 23 25 24 25 24 27 30 29
38 37 36 36 35 33 31 33 34 33 33 33 33 32 32 31 32 35 35 35 35 34 33 33 32 30 26 26 26 26 27 25 23 23 23 22 23 22 22 22 23 23 24
37 36 36 34 32 31 30 32 30 30 31 33 32 30 30 30 30 32 34 35 34 34 33 33 34 34 27 24 24 23 25 23 21 22 22 22 21 20 21 21 22 22 23
36 35 35 34 33 30 29 28 27 28 31 31 28 29 30 30 30 31 31 33 34 34 34 34 35 31 25 24 25 25 23 22 22 22 22 21 20 19 20 21 22 23 24
35 34 33 32 31 28 27 25 26 27 25 26 28 29 30 31 31 31 31 32 33 35 35 35 29 27 27 25 23 22 22 23 22 22 22 21 20 19 20 19 22 24 25
34 33 32 32 31 31 25 23 22 23 23 26 29 31 32 32 32 32 33 35 36 35 36 34 30 28 25 22 23 23 23 23 23 23 23 21 21 22 20 18 19 21 22
33 32 32 33 33 24 21 20 20 21 23 26 30 31 31 32 32 33 34 36 36 32 34 33 30 24 23 25 26 28 27 25 24 24 23 22 22 21 18 19 20 21 21
33 33 33 29 23 21 20 18 19 21 22 30 31 31 33 32 33 34 34 33 32 32 32 30 25 24 24 27 28 27 25 25 24 23 22 20 17 19 20 21 20 22 23
32 29 22 22 21 20 19 19 20 20 29 29 29 30 31 31 32 34 32 33 32 32 28 25 24 23 24 25 23 26 22 21 21 19 19 20 20 20 19 23 24 22 22
32 20 19 20 19 17 18 19 20 26 26 27 27 28 29 31 31 32 33 32 31 27 26 25 24 22 19 20 20 20 22 19 18 19 19 19 19 21 23 24 23 22 22
17 15 17 17 17 18 19 20 23 25 25 26 27 28 27 28 28 29 32 32 30 26 25 23 22 21 18 19 18 18 18 17 19 19 18 19 20 23 22 23 23 21 20
15 17 18 18 19 21 22 23 24 24 25 27 27 26 26 26 26 28 31 28 26 24 22 20 21 20 19 17 18 17 17 18 19 18 18 20 21 20 23 23 23 23 24
16 18 19 20 22 23 24 24 25 25 26 27 26 26 27 26 23 23 24 24 23 21 21 17 17 19 19 18 19 20 18 18 20 19 20 22 19 21 22 22 23 23 23
18 19 20 22 23 24 26 26 26 27 27 27 26 26 24 25 25 22 22 22 22 20 20 20 18 18 19 16 18 21 20 19 19 18 18 17 17 18 19 20 21 21 21
20 21 23 24 25 26 28 28 28 28 27 27 26 25 24 24 25 23 22 21 21 20 20 20 19 18 16 16 17 22 18 18 17 16 16 16 17 17 17 18 19 19 20
23 24 26 26 26 28 29 28 29 27 26 26 26 26 23 23 26 22 23 23 22 21 21 21 19 18 17 16 21 18 16 14 15 14 14 14 14 14 14 15 15 16 17
24 26 26 26 29 28 27 28 29 29 29 28 28 27 24 22 26 25 22 23 24 25 26 26 21 18 19 21 18 18 15 13 12 12 12 11 12 12 13 13 13 14 14

GFSMW_sfc_30mbdewp_030.txt.gz
Dewpoint
45 47 49 50 51 54 56 56 51 50 50 47 43 42 40 39 38 38 39 37 38 39 38 39 38 38 37 39 41 41 40 40 40 38 34 36 39 35 34 32 34 37 37
45 46 46 47 49 51 52 52 49 50 46 44 43 42 40 39 38 38 38 37 38 39 39 38 37 37 34 36 40 39 37 38 39 37 36 31 31 33 32 34 32 34 35
44 45 46 46 46 46 43 43 43 42 42 43 43 42 42 41 38 37 36 37 38 38 38 37 35 36 38 38 39 38 36 36 37 36 35 31 29 31 31 30 33 32 33
44 45 44 41 40 41 41 41 42 42 42 42 42 41 40 40 39 36 36 36 37 37 37 37 37 37 39 37 38 38 37 36 33 35 37 36 35 30 27 31 31 31 30
43 42 41 41 41 41 42 42 43 43 43 42 42 41 40 39 38 37 35 35 36 37 36 36 38 38 38 38 37 37 37 36 35 35 35 35 32 32 31 28 30 33 33
42 42 42 42 42 42 42 42 43 43 43 43 42 40 38 37 36 36 35 34 35 36 35 36 38 38 38 37 37 37 37 36 35 34 34 34 32 31 32 29 29 29 30
41 41 42 42 43 42 40 42 42 42 42 41 40 40 38 37 36 34 33 33 33 34 35 34 36 38 38 38 38 37 37 35 34 33 33 33 33 35 34 30 28 30 27
41 42 43 42 42 41 40 41 41 41 41 40 39 39 38 37 35 34 34 34 33 34 35 34 33 36 37 38 38 37 36 35 34 32 32 32 33 33 32 31 28 24 25
40 41 41 40 41 39 38 39 39 40 39 37 37 37 37 37 37 36 36 35 35 35 35 35 32 35 36 37 38 37 36 34 33 32 32 32 28 26 25 27 25 26 20
39 39 39 38 38 36 35 37 38 37 37 37 36 35 34 33 33 33 34 35 36 35 35 34 33 33 33 32 33 34 32 31 30 31 26 23 24 24 24 24 23 24 24
38 37 36 35 34 31 31 34 34 33 33 33 33 32 31 30 31 31 32 33 35 35 34 34 33 33 34 33 29 28 27 27 25 23 23 22 23 22 22 21 22 22 23
36 36 35 32 31 30 31 31 30 29 29 33 31 28 30 30 29 30 31 32 33 34 34 34 33 35 35 32 26 26 26 24 22 21 22 22 21 21 20 20 20 21 22
35 34 34 33 31 28 30 28 26 28 27 26 26 28 29 31 30 31 31 31 32 34 34 34 35 34 29 27 27 26 23 21 22 23 22 22 22 20 20 19 20 21 21
34 34 33 32 31 28 27 25 25 25 23 25 28 30 31 31 30 30 31 33 35 35 35 35 36 34 29 27 24 22 23 23 23 23 23 23 23 21 20 21 21 19 21
34 33 32 32 31 31 25 23 21 22 24 23 29 31 31 31 31 31 33 34 35 35 33 31 31 29 25 23 24 26 27 26 25 24 24 24 23 22 21 20 19 19 20
34 32 32 33 33 24 21 20 19 20 23 23 30 31 31 31 31 32 34 33 33 33 34 32 29 24 24 27 28 28 26 24 24 22 22 22 19 19 18 19 19 19 20
33 32 33 28 23 20 19 18 19 21 22 29 30 29 30 31 30 32 33 31 32 31 31 27 24 22 25 27 24 26 23 21 20 18 18 17 16 19 20 20 20 21 22
33 32 25 22 21 20 18 19 20 20 27 28 27 27 28 29 30 31 33 31 31 31 28 25 23 23 23 21 20 23 22 20 19 18 18 18 19 20 20 23 24 23 23
33 28 20 21 20 17 18 19 20 25 25 25 26 27 28 27 28 27 28 31 31 30 26 24 23 19 18 20 19 19 19 19 18 18 18 19 19 21 23 23 22 21 21
24 16 19 18 17 18 20 20 21 24 24 25 26 28 27 26 26 25 26 30 32 27 25 22 22 20 18 18 18 18 18 17 18 19 19 19 19 20 21 23 21 20 20
15 17 18 18 19 21 22 22 24 24 25 26 27 27 26 26 25 23 27 28 26 24 22 20 21 19 18 18 18 19 19 19 20 19 18 19 19 19 19 21 22 22 22
18 18 19 20 22 23 24 24 25 26 27 27 27 26 26 26 25 23 24 24 23 22 21 17 17 18 19 19 19 20 19 18 19 17 18 19 16 16 17 20 22 20 21
18 20 21 22 24 25 26 26 27 28 28 27 27 26 26 25 24 24 22 22 21 20 20 20 19 19 19 18 18 20 21 17 17 16 16 15 15 15 17 16 17 18 19
20 21 23 24 25 27 28 28 28 28 28 26 27 26 26 25 24 24 22 21 20 20 20 20 20 19 18 17 17 20 19 15 16 14 14 14 15 14 15 15 16 16 16
22 23 25 26 25 29 28 27 28 28 27 27 27 27 28 26 23 25 22 23 23 21 21 21 21 19 18 18 20 19 17 14 13 12 11 11 10 10 13 13 13 14 12
23 25 25 26 28 28 27 28 28 29 29 29 28 28 28 27 23 25 25 25 24 24 26 27 24 20 20 21 22 17 16 14 12 9 10 9 9 8 11 11 11 10 8

GFSMW_sfc_30mbdewp_033.txt.gz
Dewpoint
47 51 53 56 57 58 56 56 55 55 54 51 45 42 42 41 40 39 39 40 40 40 39 36 36 35 33 36 37 34 33 30 35 30 27 30 40 35 33 30 30 32 33
49 50 51 54 56 56 55 56 56 53 50 45 44 43 41 40 39 39 39 39 40 39 37 36 35 36 32 35 36 35 29 31 36 30 28 22 22 31 28 32 29 32 29
48 49 51 53 55 55 55 53 51 49 47 45 44 42 41 40 38 38 37 38 39 38 38 37 36 36 35 32 35 35 32 27 30 33 28 22 20 26 26 25 29 28 29
47 47 47 46 46 46 47 48 46 45 45 45 44 43 42 41 40 39 38 37 39 38 37 37 38 38 37 34 33 34 33 33 27 29 31 32 30 24 20 23 24 30 29
44 43 41 41 42 43 44 44 44 44 44 44 44 43 42 41 39 39 39 39 38 39 38 37 38 38 36 35 36 37 37 35 32 28 28 29 27 26 26 22 23 24 25
43 41 41 42 42 43 44 45 44 44 44 44 44 43 42 40 39 39 38 38 37 37 38 37 38 38 38 38 38 38 38 36 35 32 31 29 26 24 25 22 23 22 23
42 41 41 42 42 42 44 44 44 43 43 43 43 42 41 41 39 38 37 37 36 35 36 38 37 37 39 39 39 38 37 37 35 33 30 32 30 30 31 24 22 22 20
42 42 42 43 43 42 42 43 43 42 42 42 41 41 41 40 39 38 38 37 37 37 38 38 37 36 37 38 39 37 36 37 37 35 33 33 32 32 28 25 25 21 18
42 42 43 43 43 42 42 43 41 41 41 40 40 40 39 39 38 37 37 36 37 35 36 37 37 36 36 36 36 35 34 34 34 33 32 31 31 29 27 26 25 23 19
41 42 42 41 40 39 39 40 41 40 40 38 38 36 35 35 34 34 34 33 33 34 34 34 35 36 35 35 34 33 31 30 31 30 30 28 26 25 26 25 23 21 20
40 40 39 39 36 33 34 37 37 35 34 35 35 34 32 32 32 31 32 32 33 32 33 34 35 35 34 35 34 33 29 27 27 26 25 24 23 23 22 21 19 17 17
39 37 36 34 32 31 34 33 32 30 32 33 30 30 31 31 31 30 30 30 30 32 33 35 35 35 36 36 31 27 28 27 25 23 23 23 22 22 21 20 19 18 18
36 36 34 33 31 31 32 29 29 28 26 26 26 29 31 31 30 29 30 31 32 34 36 36 36 33 30 29 29 28 26 23 23 24 23 22 22 21 20 20 19 18 19
35 34 34 32 30 29 28 27 27 26 25 25 27 30 32 31 30 30 31 33 34 34 34 35 35 34 31 28 26 23 24 25 25 24 23 22 21 20 18 19 20 20 20
35 34 33 32 32 31 27 25 24 25 25 24 28 32 32 32 31 31 32 34 33 32 33 32 32 28 25 24 27 27 25 23 20 19 17 17 18 19 18 17 17 17 16
35 34 32 32 33 29 24 23 22 22 25 24 28 32 31 31 30 30 32 33 32 32 33 32 27 25 25 28 25 25 22 19 16 14 14 14 15 16 18 18 19 20 18
35 32 32 33 30 23 22 20 20 23 23 26 31 29 29 29 29 29 31 30 32 31 32 29 25 24 25 23 21 25 20 17 15 14 14 14 15 17 17 17 19 22 22
35 33 32 26 23 22 20 20 20 21 24 29 28 27 28 28 28 28 27 28 32 32 31 26 24 22 19 21 20 20 17 17 15 15 15 15 16 17 18 22 19 19 18
35 33 25 23 22 19 19 20 21 24 27 26 26 27 28 28 26 26 26 27 30 32 31 26 23 20 18 19 19 19 19 18 17 17 16 16 16 18 20 20 20 17 16
32 23 22 20 18 19 21 21 21 24 25 26 26 27 28 27 26 26 25 28 31 32 28 24 22 21 19 18 19 19 20 19 18 17 15 16 17 19 19 20 19 18 17
19 20 19 19 20 22 22 23 24 25 26 27 28 28 27 27 27 26 25 25 26 27 26 24 23 21 20 19 19 19 20 19 17 16 14 14 16 16 17 18 19 20 19
18 19 20 21 23 24 24 24 25 27 28 28 27 27 27 26 26 25 24 24 25 24 24 23 23 21 22 20 19 19 21 19 17 16 14 15 15 15 15 15 16 16 17
24 20 21 23 25 26 26 26 27 29 27 28 27 27 27 27 27 24 23 23 23 22 22 21 22 21 23 22 20 19 22 19 17 17 13 14 14 13 12 13 15 15 15
20 22 23 23 24 26 28 29 28 27 27 27 27 27 27 26 28 25 23 22 23 22 21 21 21 21 22 22 20 20 21 19 16 15 12 13 13 11 13 12 12 12 11
23 23 24 25 24 28 29 28 28 28 27 28 28 28 27 27 28 25 23 23 24 24 22 21 23 24 22 22 21 22 20 18 16 13 12 10 10 7 8 10 9 7 6
23 25 25 25 26 27 27 27 28 29 28 28 28 29 29 28 28 25 24 26 26 26 25 25 26 26 25 23 22 22 18 16 14 12 12 10 10 9 7 9 8 7 4

GFSMW_sfc_30mbdewp_039.txt.gz
Dewpoint
41 46 49 48 47 54 57 57 58 57 57 54 53 52 49 45 44 43 44 44 44 40 38 35 35 35 30 32 33 33 31 29 28 26 27 27 26 23 23 27 28 28 26
45 48 51 51 51 55 57 58 58 57 57 50 52 52 47 45 44 43 44 44 41 38 34 36 34 33 32 31 31 33 32 31 28 27 26 24 23 22 25 25 24 24 26
45 48 51 54 55 56 56 57 56 56 54 53 49 46 45 44 43 43 43 42 39 36 35 35 34 33 33 31 33 33 31 29 29 28 26 24 22 23 23 23 23 25 24
44 49 52 54 55 55 56 54 53 52 50 46 44 43 41 40 40 41 41 41 39 37 35 32 34 35 34 33 33 31 33 32 29 28 26 28 26 23 22 23 23 23 21
47 50 52 55 55 54 53 51 50 47 45 45 43 43 43 43 43 42 42 40 38 36 35 35 35 35 34 34 35 35 37 34 32 31 32 31 29 26 26 25 22 21 21
48 47 49 48 47 50 50 48 45 44 45 45 45 45 44 41 40 39 36 33 31 30 32 33 34 35 33 33 33 33 32 34 35 35 35 31 29 26 25 24 22 22 20
45 43 43 43 45 47 47 46 44 43 44 45 45 44 42 39 36 35 32 31 30 31 32 34 32 29 28 28 29 31 32 35 36 34 31 33 32 30 27 25 25 23 20
44 40 39 39 42 45 45 44 43 44 45 44 42 40 38 35 34 32 33 32 31 30 29 27 27 27 26 26 28 29 32 32 36 34 30 28 31 29 26 26 25 26 23
42 38 39 40 42 43 45 44 43 43 42 41 39 39 37 35 32 33 32 29 29 26 24 26 26 25 26 27 28 29 30 33 34 34 30 30 31 28 28 28 25 23 23
40 38 39 41 42 43 45 45 44 41 40 39 38 36 35 33 31 29 28 28 27 26 25 25 25 27 28 28 28 31 33 33 34 31 28 28 28 27 26 24 21 19 18
38 39 40 42 43 44 45 45 42 38 38 37 36 35 32 30 29 27 27 26 27 26 24 25 27 28 27 32 33 32 31 30 30 29 28 27 26 25 22 21 19 18 17
38 39 41 42 44 43 42 41 38 36 34 33 34 34 30 26 27 27 25 26 27 26 25 27 28 28 30 30 30 30 30 29 28 26 23 20 19 19 19 18 16 16 16
37 39 41 42 42 41 39 38 36 33 32 33 30 27 26 27 26 24 25 27 26 26 27 27 27 29 29 30 30 29 28 25 23 21 20 19 19 18 17 17 17 16 14
38 39 41 41 40 38 37 35 33 32 32 29 24 22 25 26 24 25 27 27 26 27 27 27 28 28 29 26 26 22 24 22 19 20 19 18 16 16 17 16 16 15 15
39 39 40 39 38 36 35 32 34 32 29 25 22 22 24 26 26 27 28 26 27 28 28 27 27 28 26 23 26 23 22 20 18 18 17 15 16 17 17 16 16 17 16
37 38 38 38 37 35 33 33 32 29 26 23 23 23 23 25 26 27 27 25 26 26 26 27 28 28 25 26 23 23 22 20 17 16 16 15 16 15 17 18 19 19 17
36 37 37 37 36 34 33 32 27 25 24 23 22 21 25 25 24 23 24 24 25 26 27 29 29 27 27 24 22 21 20 20 18 18 17 15 13 16 16 17 16 18 19
35 37 37 37 36 34 32 26 27 26 23 22 20 21 24 23 22 22 23 25 26 26 25 28 30 28 26 23 21 21 20 20 19 19 17 16 16 17 18 16 16 17 17
36 37 37 36 34 30 25 26 23 21 20 20 19 20 21 21 22 22 23 26 25 25 25 28 29 28 28 23 21 19 20 21 20 19 17 17 15 17 16 15 17 15 13
37 37 37 35 30 25 24 22 25 23 19 17 20 20 21 21 21 23 24 26 25 24 24 26 29 28 27 23 21 20 21 22 21 19 17 17 16 16 16 15 15 15 14
37 37 34 28 26 24 24 28 23 20 18 22 22 22 21 21 23 24 25 25 24 24 26 28 28 27 27 26 23 21 21 21 21 19 18 17 18 16 14 15 15 17 15
35 30 27 23 24 30 27 23 18 18 22 23 23 22 21 23 24 24 25 24 24 24 25 29 29 27 26 26 24 23 22 20 20 20 19 20 18 15 14 14 14 14 15
26 24 23 30 29 28 23 18 19 24 23 24 23 23 23 24 24 24 23 23 23 24 25 25 26 26 24 24 26 24 22 21 22 21 20 19 17 15 14 11 12 15 14
25 30 33 32 31 27 22 21 26 26 25 24 23 23 24 24 24 24 22 22 24 26 26 25 24 24 22 22 25 28 26 23 25 24 22 19 18 18 18 15 14 13 13
34 34 32 28 20 21 24 24 25 25 24 23 23 25 26 26 25 23 22 23 24 26 25 26 26 26 25 24 27 26 24 25 24 21 19 18 18 17 15 14 13 13 12
33 28 23 22 22 23 24 24 24 24 25 25 26 27 27 27 26 24 24 26 25 25 25 25 25 27 25 24 26 25 24 23 22 19 18 18 20 19 18 15 13 13 13

GFSMW_sfc_30mbdewp_042.txt.gz
Dewpoint
35 41 43 43 52 58 58 58 58 57 57 56 54 52 51 49 48 46 46 46 46 42 40 41 38 37 37 36 37 37 36 36 36 33 31 31 31 28 30 30 29 29 29
36 45 46 47 55 58 58 59 58 58 57 54 52 52 50 47 46 46 47 47 43 40 40 39 38 37 37 36 39 38 37 36 36 32 32 28 28 29 29 30 28 28 29
42 46 48 50 51 58 58 58 58 57 57 51 54 53 49 48 46 46 46 45 42 40 37 37 37 37 38 37 38 37 37 35 35 34 33 29 27 29 29 26 27 29 28
44 46 49 52 55 58 58 58 57 56 56 54 49 47 45 44 44 45 46 43 41 40 37 36 36 38 39 38 39 36 38 37 35 35 33 33 33 30 28 27 27 28 25
42 46 50 54 54 56 57 58 56 53 52 50 47 46 45 45 44 45 45 43 43 40 38 37 38 39 39 39 39 39 38 38 37 36 36 35 35 34 31 28 27 27 26
42 46 53 55 54 57 57 55 52 50 48 46 47 46 46 43 43 43 43 40 38 35 36 38 38 36 35 34 33 34 34 34 36 37 37 36 34 32 31 30 29 26 26
45 48 50 52 52 52 53 52 49 46 47 46 47 46 45 42 38 38 37 34 34 35 35 33 32 32 32 32 33 33 34 34 35 36 37 35 34 33 33 31 28 27 27
47 46 48 47 49 50 49 48 46 45 46 47 46 45 41 39 38 39 36 34 33 33 31 30 31 31 30 31 32 33 33 33 36 36 37 36 34 33 32 29 29 27 26
44 43 45 45 46 47 48 46 45 44 46 46 44 41 39 37 36 35 34 33 31 29 30 30 29 29 31 32 32 33 34 35 35 36 36 33 31 32 30 30 29 27 24
43 42 41 42 44 46 47 47 46 45 45 43 41 40 39 36 34 33 31 30 29 29 29 28 28 30 31 32 34 35 35 33 34 33 33 32 31 30 29 28 27 26 23
42 41 39 41 43 45 47 47 46 43 42 40 40 38 36 35 33 31 29 28 28 28 27 27 28 29 31 32 32 32 31 31 31 31 29 28 28 27 26 25 23 21 20
41 40 40 42 43 45 46 46 45 42 40 39 37 37 35 34 31 29 28 27 28 28 27 28 28 29 29 30 31 32 31 30 29 28 25 24 22 22 22 21 21 20 18
40 39 40 41 43 45 45 45 43 40 38 34 35 35 35 29 28 28 26 27 28 28 28 28 29 29 30 28 30 30 29 28 26 25 22 22 21 19 20 19 17 18 18
37 38 40 42 44 44 44 42 39 37 34 35 34 32 29 28 28 26 27 28 29 28 29 29 29 29 28 29 28 27 26 24 22 22 21 20 19 18 17 16 17 16 17
34 36 39 42 43 43 41 39 38 35 36 34 29 27 26 28 27 27 29 29 29 28 29 30 29 29 29 27 27 25 24 24 22 21 20 18 19 17 18 16 17 19 19
31 36 39 41 42 41 38 38 35 36 34 30 27 25 24 26 26 27 29 29 28 28 29 29 30 29 28 26 24 23 22 23 22 21 20 19 18 18 20 22 19 19 18
29 36 38 39 39 39 37 35 35 34 29 27 25 23 23 26 26 26 24 25 26 29 29 29 30 30 30 26 24 21 21 22 23 21 21 19 16 21 19 18 17 16 17
31 34 37 38 39 38 36 35 31 27 27 26 23 21 23 24 25 24 24 25 27 28 28 28 30 31 30 27 24 21 21 23 22 22 21 19 19 20 18 18 16 17 17
32 34 37 38 38 36 34 29 28 27 24 24 23 20 22 22 23 23 25 26 27 28 27 27 29 30 30 26 23 21 22 23 23 22 22 20 18 19 19 17 17 17 16
33 35 37 38 36 31 27 27 23 25 23 21 24 24 24 23 22 23 25 27 28 27 27 28 29 30 30 27 24 22 23 23 23 23 21 20 18 18 18 16 17 16 17
36 38 36 33 28 27 27 29 29 29 26 25 24 23 23 23 23 25 26 26 26 27 27 27 29 30 30 30 25 24 23 22 23 22 21 22 20 20 18 16 17 17 17
33 31 28 29 30 30 31 29 28 25 25 27 28 26 26 26 24 25 26 27 27 27 27 29 29 30 29 28 27 25 23 23 21 22 22 23 21 19 18 17 16 15 17
27 26 30 30 31 31 29 28 26 25 28 28 29 28 26 25 25 25 26 26 25 24 26 27 27 29 29 29 29 26 25 24 22 23 24 23 22 21 19 18 15 15 17
33 34 34 34 33 29 25 24 27 29 29 27 26 26 26 26 26 26 26 26 25 25 27 27 27 27 26 25 28 27 26 25 24 23 25 25 22 20 19 19 20 17 17
34 32 31 28 23 25 28 28 27 26 26 26 25 26 27 28 29 28 26 25 26 26 26 27 28 29 28 28 26 27 30 30 29 24 22 20 21 20 19 19 17 16 16
30 28 27 27 29 26 24 24 25 25 25 25 27 28 29 29 29 28 27 27 27 27 26 25 26 28 28 26 27 27 26 25 24 22 20 20 21 22 20 19 18 16 15

GFSMW_sfc_30mbdewp_048.txt.gz
Dewpoint
49 48 49 50 51 57 57 57 56 56 55 54 53 52 51 52 49 48 47 47 46 44 42 41 38 38 35 38 37 37 35 36 37 33 33 32 33 30 31 30 28 29 29
45 47 49 50 56 57 57 57 56 55 55 54 53 52 51 50 47 46 47 47 43 42 41 39 36 36 37 37 37 37 36 37 37 35 34 31 32 31 32 31 29 28 30
44 46 50 54 56 57 57 56 56 55 55 54 52 50 48 47 45 45 46 47 42 40 39 38 37 37 38 37 38 38 37 35 36 36 34 30 30 31 32 31 30 30 29
42 47 51 56 57 57 57 56 55 55 55 54 52 49 47 45 45 45 46 46 41 40 39 38 38 39 39 38 37 34 34 34 30 34 35 35 34 32 31 30 31 32 30
40 48 54 56 57 58 57 57 55 55 55 55 53 49 47 46 46 46 46 43 41 40 39 39 39 37 35 33 32 31 32 33 32 32 34 35 35 35 33 31 30 32 32
42 46 55 56 57 58 58 57 56 56 57 56 53 51 47 46 46 46 44 42 43 39 36 34 33 33 31 30 31 31 30 31 32 34 35 36 35 34 34 33 33 32 32
45 49 55 57 57 57 58 57 57 56 56 56 53 51 47 46 46 46 44 41 37 34 32 32 31 31 30 31 31 32 33 34 35 35 36 37 36 36 36 36 34 31 30
46 49 55 57 57 57 57 57 57 56 54 53 51 49 46 46 46 44 41 37 35 34 33 33 31 30 31 32 34 35 35 33 34 34 34 35 35 35 35 35 33 30 29
48 51 53 55 57 57 57 57 57 54 52 50 47 43 41 41 40 37 37 36 35 34 33 30 29 30 32 34 33 32 32 32 33 34 32 32 32 32 32 33 33 32 26
51 53 53 54 56 56 55 54 53 50 48 47 44 40 40 39 37 37 36 34 33 31 31 31 28 30 32 32 31 31 32 31 31 32 30 30 31 28 26 25 24 23 21
49 51 52 52 53 53 50 48 47 48 46 43 41 40 39 39 39 36 35 32 34 35 31 28 28 29 32 31 30 29 30 31 31 30 29 27 26 23 22 22 20 18 17
46 49 50 51 51 50 47 46 46 46 43 41 40 37 38 39 37 35 34 35 34 31 29 28 28 30 31 31 29 28 30 30 30 28 23 22 22 20 22 20 17 17 17
45 45 47 48 49 48 47 47 46 44 41 40 38 39 40 38 38 35 33 34 32 29 28 28 28 30 31 30 29 29 30 30 27 23 22 21 22 20 20 17 16 17 17
44 44 44 46 47 47 48 46 44 43 39 39 40 40 40 38 33 34 32 30 29 28 28 29 30 31 32 30 29 30 30 26 24 23 22 22 21 17 16 16 16 17 18
43 43 42 43 45 46 47 45 42 41 41 41 40 39 38 34 33 31 31 31 30 29 29 29 31 31 31 30 30 27 25 24 23 23 22 22 21 24 23 17 18 19 18
37 40 43 44 46 47 45 43 42 41 40 39 38 38 32 33 33 33 31 31 30 29 29 30 30 30 30 29 28 26 25 23 22 21 22 23 23 22 22 23 22 20 17
39 43 44 46 46 46 44 42 40 40 36 33 33 33 32 31 30 29 27 27 27 28 28 30 30 29 31 30 29 27 23 22 22 22 23 22 21 22 19 19 19 18 18
36 40 42 44 43 41 38 37 35 33 31 30 29 29 30 30 30 30 29 31 30 29 29 29 29 29 31 30 30 28 23 22 22 23 23 22 21 21 19 18 17 17 16
34 33 33 33 34 33 32 30 29 28 29 29 30 31 31 30 29 33 32 31 29 28 28 29 28 28 30 32 31 28 23 22 24 25 24 23 22 21 21 19 18 17 16
30 30 30 30 29 28 27 28 28 29 30 29 30 30 31 35 35 31 30 29 28 26 27 27 28 29 29 30 31 29 24 23 26 24 23 23 20 21 20 20 19 16 14
29 29 29 30 30 29 28 28 29 30 32 34 35 38 36 31 29 28 28 27 27 26 26 27 28 28 29 29 30 30 26 24 25 23 23 23 22 22 22 22 20 18 17
30 29 29 28 28 28 27 28 30 29 32 35 34 31 30 30 29 29 28 28 27 27 26 26 26 27 29 29 30 30 30 27 24 23 24 23 23 23 25 23 23 23 22
31 28 26 27 28 29 28 28 28 29 30 30 30 29 29 29 29 28 27 27 26 26 26 26 26 26 28 29 30 30 31 31 27 25 24 23 23 23 24 24 24 23 21
31 31 29 27 27 28 28 28 28 29 28 27 26 27 27 27 28 28 28 28 27 25 25 25 25 25 26 26 27 28 29 30 29 26 27 24 23 24 23 23 21 21 20
28 27 27 28 28 28 27 27 27 27 26 26 26 26 26 27 27 28 29 28 27 27 26 25 25 25 24 25 27 27 26 27 28 27 24 24 23 23 23 21 21 21 20
28 28 29 28 28 25 24 25 26 26 25 25 25 25 25 25 26 27 27 29 28 28 28 28 27 27 27 28 29 29 30 30 28 26 23 23 21 21 20 19 19 20 20

GFSMW_sfc_30mbdewp_051.txt.gz
Dewpoint
56 55 55 55 54 53 58 57 56 56 56 55 53 53 52 51 49 48 48 48 45 43 40 39 38 36 35 36 36 36 35 36 37 33 34 33 33 31 30 29 28 29 29
53 54 53 52 52 54 57 57 56 55 55 54 53 52 51 51 48 47 47 47 45 43 40 38 37 36 37 37 37 36 36 37 37 33 33 30 32 31 32 33 30 29 30
51 52 49 51 51 54 56 56 56 55 55 54 52 50 48 48 46 46 46 47 43 43 41 38 37 37 38 37 38 37 35 32 34 35 28 25 26 30 33 31 32 30 31
48 49 48 49 52 54 56 56 56 55 55 53 51 49 48 47 46 45 46 47 43 41 39 38 38 39 39 38 36 34 34 33 28 32 35 33 33 31 31 32 31 32 31
46 47 48 49 53 54 56 56 56 55 55 54 52 50 48 47 46 45 45 46 43 41 40 39 40 38 35 33 31 31 30 32 31 31 32 34 34 34 33 31 31 33 34
43 46 48 51 54 56 56 56 55 55 55 54 53 50 48 46 45 45 45 44 42 40 39 38 35 34 32 30 30 31 31 32 33 34 35 35 35 34 33 33 32 31 32
40 44 49 54 55 56 56 56 55 55 55 55 54 52 49 47 46 45 45 42 38 35 34 34 34 32 31 32 32 33 34 34 34 34 35 36 36 36 36 35 31 30 31
41 47 53 55 56 56 56 57 56 56 56 56 55 53 50 48 47 46 44 40 36 35 35 36 35 32 32 33 35 34 33 32 32 33 34 34 33 33 35 33 33 29 28
43 48 54 55 56 57 57 57 57 56 56 56 55 52 49 47 46 44 41 38 37 36 37 34 33 33 34 34 33 32 31 31 33 33 32 31 32 32 32 32 33 31 25
45 48 54 56 57 57 57 57 57 57 55 53 51 48 46 43 41 40 39 37 39 38 36 35 36 32 34 33 32 31 32 31 31 31 30 30 30 28 26 25 25 29 24
48 51 53 55 56 57 57 57 57 56 51 49 45 43 42 40 40 39 37 37 38 38 40 36 31 31 32 32 31 30 29 29 30 30 29 28 27 24 23 23 21 19 18
49 52 52 54 55 55 55 55 54 52 48 46 44 41 41 40 38 36 35 38 43 40 34 34 30 30 31 31 30 29 29 29 29 30 27 23 23 22 22 21 19 18 17
48 50 51 52 52 53 53 51 49 48 46 44 42 40 40 39 37 37 40 43 37 35 33 30 28 29 30 31 30 29 29 30 30 29 23 21 22 21 21 20 18 17 17
46 47 49 50 51 51 49 48 47 46 43 41 40 41 40 40 40 42 39 36 34 30 29 29 29 30 31 31 31 29 30 31 30 25 24 22 22 21 19 17 17 16 16
44 45 45 47 49 49 49 47 46 44 43 41 42 43 42 40 38 35 33 31 30 29 29 29 30 30 32 31 30 30 29 27 26 24 24 23 22 23 21 19 18 17 18
39 42 44 44 46 48 47 45 43 44 44 44 43 40 36 34 33 33 33 32 30 30 30 30 30 31 30 29 30 30 28 26 24 23 23 22 24 25 24 25 22 20 18
41 43 44 45 46 46 44 43 44 44 41 39 36 36 35 34 32 30 29 29 29 34 33 30 30 29 30 30 30 30 27 25 24 23 22 22 22 22 22 24 22 20 20
38 40 43 43 43 41 41 39 37 35 34 34 33 32 31 30 30 30 33 36 37 33 30 28 29 30 29 30 31 31 28 24 23 23 23 23 25 22 21 19 18 18 18
31 31 32 34 34 33 32 32 32 31 30 31 31 31 30 31 33 35 37 36 31 29 28 28 28 28 28 29 31 31 29 25 23 23 24 28 24 23 24 20 19 19 18
30 30 29 28 28 29 30 30 30 30 30 30 30 31 32 36 38 37 33 30 29 28 27 26 27 27 27 29 31 32 29 26 25 24 26 26 25 22 23 21 19 19 18
29 29 29 28 29 30 30 31 31 31 33 34 37 40 38 34 31 29 28 28 28 27 27 27 27 27 27 28 30 31 29 27 26 25 25 25 24 24 23 23 21 20 19
28 28 28 28 28 29 29 30 32 35 36 34 33 31 31 30 29 28 28 28 27 26 26 26 26 26 27 28 29 30 31 28 26 26 26 25 25 26 24 24 24 24 23
27 27 27 27 28 29 29 28 29 30 30 29 29 29 28 28 29 28 27 27 26 26 26 26 26 25 26 26 28 30 31 31 29 28 27 26 26 28 25 25 26 25 23
28 27 27 27 28 29 29 28 28 28 27 26 26 26 26 26 26 27 27 27 27 27 27 26 25 25 25 25 26 26 27 30 31 30 29 27 27 26 24 24 25 24 21
27 28 28 28 27 26 26 26 27 26 25 25 26 26 26 26 26 26 26 26 27 28 27 27 27 26 24 24 26 26 25 26 27 28 28 25 24 23 23 23 22 22 20
28 26 26 25 25 27 29 30 30 29 29 28 28 28 27 27 27 27 27 28 28 28 29 29 29 28 27 27 28 30 29 30 29 27 25 23 23 23 22 21 21 20 19

GFSMW_sfc_30mbdewp_057.txt.gz
Dewpoint
52 54 54 55 56 57 57 58 58 58 57 56 56 56 57 58 57 55 54 52 50 47 45 42 42 40 39 39 40 39 39 38 38 35 32 34 36 35 32 34 33 32 33
52 53 54 54 54 55 57 57 58 57 57 55 55 55 56 56 56 55 53 51 48 46 45 42 40 39 39 40 40 40 38 38 37 29 30 23 27 33 34 34 34 35 33
52 53 54 54 55 55 56 57 57 57 56 56 55 54 54 53 53 53 52 50 47 45 44 43 40 40 40 39 40 40 38 34 35 36 25 18 15 25 30 33 33 35 34
51 53 55 54 55 55 56 57 57 57 57 56 54 53 53 53 53 52 52 50 47 44 42 42 41 41 40 40 40 37 35 32 27 32 34 33 28 19 20 29 33 35 34
51 52 54 55 55 55 56 57 57 56 57 56 55 54 54 55 52 51 50 49 47 45 42 41 41 41 41 40 37 36 34 32 29 27 30 32 31 33 28 21 27 31 30
50 51 54 55 55 55 56 57 57 56 56 56 55 54 54 53 51 50 49 48 46 45 43 41 41 41 39 37 35 34 33 34 32 33 35 31 27 25 28 27 27 27 27
49 49 52 53 54 53 55 56 56 56 56 56 55 54 54 53 51 51 49 48 46 43 42 41 41 38 36 35 35 34 36 36 36 36 33 33 32 32 31 30 27 26 26
48 47 49 51 52 53 54 55 55 55 56 56 55 55 54 53 52 50 48 48 47 44 42 40 38 35 36 36 37 39 36 36 36 35 34 31 32 33 31 29 28 25 21
46 46 47 49 51 52 54 55 55 55 56 56 56 55 55 54 52 50 49 48 46 42 40 38 36 37 39 41 39 36 34 34 34 34 33 32 31 32 31 32 30 26 23
39 42 44 48 50 52 53 55 55 55 55 56 56 56 55 54 52 50 48 45 42 39 38 37 38 42 43 40 36 34 33 33 33 32 33 32 31 30 30 30 29 29 25
40 41 43 47 50 53 54 55 55 55 55 56 56 56 55 55 52 49 45 43 41 41 38 40 42 43 39 36 35 34 33 33 32 32 32 31 31 29 29 28 26 24 23
41 44 45 50 52 54 54 55 55 55 56 56 56 56 55 52 50 47 44 43 41 41 41 42 42 38 37 36 34 33 32 32 32 31 31 31 30 30 29 27 24 22 24
45 47 49 50 52 54 55 56 55 55 56 55 54 52 50 49 47 44 43 43 43 43 43 41 38 37 36 37 35 33 33 32 32 31 31 30 31 29 27 25 23 24 25
39 47 50 51 53 54 55 55 55 54 52 50 49 48 47 46 45 44 44 44 43 41 39 38 37 38 37 35 33 32 33 33 32 32 32 31 31 28 26 24 23 25 22
41 44 47 50 52 53 53 52 51 50 49 48 47 46 45 44 43 43 42 40 39 38 39 38 37 36 34 35 34 32 32 32 32 32 32 31 31 28 26 23 23 22 21
44 45 45 47 49 50 49 48 47 46 47 46 45 43 42 41 39 39 39 39 39 37 35 34 35 36 35 35 35 32 32 31 31 30 30 29 28 28 29 29 28 26 24
41 43 43 45 46 46 46 45 45 44 43 42 41 39 38 37 37 36 34 33 35 38 38 39 38 37 38 34 31 31 31 31 30 30 29 28 25 26 25 26 26 27 28
37 39 40 40 41 41 41 40 39 38 37 35 34 33 33 33 35 38 39 39 39 40 40 39 37 34 31 30 30 30 30 31 30 30 29 29 28 27 26 25 25 25 24
32 33 34 35 36 36 36 36 34 33 32 32 34 36 37 38 39 38 39 40 40 37 34 32 31 30 30 30 28 29 29 29 29 30 29 28 28 27 26 26 27 25 22
31 32 32 33 33 33 33 32 31 33 35 37 38 39 40 40 39 37 35 33 32 30 29 29 29 29 29 30 29 29 30 31 30 29 30 29 28 27 26 27 29 26 24
31 32 32 32 31 32 32 33 34 35 38 40 37 34 32 31 31 30 30 29 28 29 29 29 29 29 28 28 29 29 30 30 30 29 29 29 28 28 28 28 29 28 26
29 30 31 31 33 34 35 35 33 32 31 30 29 28 28 27 27 28 28 27 27 28 28 29 29 29 29 29 29 29 29 29 30 30 30 30 29 29 29 29 29 28 26
29 30 30 30 30 30 29 27 28 27 27 27 27 28 28 27 27 26 26 26 25 25 25 24 25 24 26 26 28 29 29 28 29 32 32 30 29 29 29 29 29 28 28
28 28 27 27 27 28 28 27 27 28 28 26 25 24 22 20 19 18 18 18 19 20 20 21 21 22 22 22 23 26 27 27 29 29 31 32 31 31 31 30 30 30 30
27 26 27 28 27 26 24 24 24 24 23 22 19 16 16 16 15 16 18 18 19 21 21 21 21 22 22 23 23 24 25 25 26 28 29 30 29 28 28 28 28 28 29
26 27 27 25 23 22 21 20 19 17 15 14 14 16 16 17 17 16 15 18 19 20 20 21 20 20 20 19 19 20 22 25 26 26 26 27 28 27 27 26 26 26 26

GFSMW_sfc_30mbdewp_063.txt.gz
Dewpoint
45 48 49 48 47 48 49 49 48 49 52 52 50 47 47 48 49 51 53 56 59 60 59 55 53 51 47 46 46 45 41 39 40 38 38 37 38 37 34 34 33 31 31
45 46 48 48 47 47 48 48 48 49 52 52 51 46 44 46 47 49 53 58 59 59 58 56 53 51 47 47 47 45 42 41 41 39 36 36 35 35 35 34 33 33 33
44 46 47 49 48 48 49 50 50 50 51 50 50 46 46 46 48 49 52 58 59 58 57 56 53 51 48 47 48 45 42 40 41 39 36 35 34 35 33 34 33 32 32
42 46 49 50 51 50 49 50 50 50 51 52 50 48 45 43 46 49 50 56 57 57 56 55 52 49 48 48 48 46 44 42 40 39 34 33 35 34 32 30 29 31 32
39 41 46 49 51 52 51 51 50 50 51 53 52 51 48 46 47 49 51 57 57 56 55 54 51 49 48 48 47 46 44 42 39 35 33 37 37 35 31 29 28 25 26
37 38 42 46 48 50 52 53 52 51 52 53 54 54 52 51 46 47 54 57 57 55 54 51 51 50 49 48 46 46 44 40 35 35 34 34 33 27 28 26 25 23 25
40 40 39 43 47 48 51 53 54 52 52 53 54 55 55 55 53 52 55 55 55 55 54 52 50 49 49 47 47 45 42 38 37 38 36 33 29 30 27 24 24 25 25
36 40 42 40 45 48 50 53 53 54 53 55 56 57 57 57 56 56 57 56 56 56 54 53 49 48 49 49 45 41 40 39 40 39 37 35 31 29 27 27 26 25 24
31 37 41 43 43 46 50 53 53 53 54 55 56 58 58 58 58 58 57 57 57 54 52 50 48 49 50 43 42 41 42 41 40 40 39 36 32 29 30 29 27 24 23
33 36 40 43 46 47 50 53 55 54 54 55 57 58 59 59 58 58 56 56 55 53 50 50 50 47 42 42 43 43 41 39 39 38 36 35 33 30 30 30 28 26 25
34 38 39 41 44 47 50 53 55 55 55 55 57 59 59 58 58 57 56 56 55 53 52 50 44 43 44 45 43 40 39 38 37 37 37 34 33 31 30 29 27 26 25
32 37 40 42 43 46 48 51 53 55 55 55 56 58 57 57 57 57 57 55 53 49 46 43 44 44 44 43 41 39 39 38 38 38 36 34 31 32 31 30 28 27 26
31 34 39 42 44 47 49 50 52 52 52 53 55 57 57 56 54 50 48 46 45 44 44 45 44 44 42 39 39 40 40 41 41 38 35 33 32 32 30 29 28 27 24
29 34 38 43 46 49 50 52 54 56 56 56 55 53 51 49 47 46 45 44 44 44 44 44 41 41 40 40 39 40 41 39 38 37 35 33 32 30 30 29 29 27 27
31 30 39 43 48 52 55 55 53 53 52 51 50 48 47 47 46 45 45 45 45 43 41 41 41 40 40 41 41 40 39 38 37 36 34 33 32 31 31 29 29 28 26
38 39 41 47 50 53 53 52 51 50 49 48 47 46 46 45 45 44 43 42 42 41 40 40 40 40 40 40 40 39 37 37 36 34 31 31 31 31 31 31 31 31 30
42 43 46 50 51 51 51 51 49 48 46 45 45 44 44 43 43 43 41 41 40 40 39 39 39 39 39 39 38 38 37 33 30 29 29 28 26 26 26 29 31 31 31
43 46 47 48 48 49 48 48 47 46 45 44 43 43 41 39 39 39 39 39 38 38 38 39 40 40 39 39 38 33 30 29 28 27 26 27 27 28 27 27 28 29 31
42 43 44 45 45 44 43 43 42 41 41 40 39 39 40 40 39 38 38 39 39 39 40 38 35 31 30 30 29 29 26 26 26 26 25 25 27 27 28 28 28 28 29
39 41 42 42 42 41 41 40 40 39 39 39 39 39 39 38 39 40 39 39 37 31 29 27 26 26 26 31 30 29 29 29 29 27 27 28 29 30 31 32 31 29 29
38 40 40 40 39 39 40 39 39 39 39 39 38 38 37 36 35 32 30 28 26 25 28 29 30 29 28 27 25 25 23 24 24 24 24 25 25 26 28 31 29 32 33
37 38 38 38 38 39 39 38 38 37 36 35 33 31 28 25 26 26 25 24 25 26 25 24 21 23 23 22 25 22 21 21 20 20 22 23 24 25 25 26 27 30 32
35 36 36 37 37 38 37 35 34 33 32 30 28 26 24 22 22 21 20 16 15 17 19 18 20 19 21 19 22 19 18 19 20 20 22 22 23 25 27 27 29 30 30
34 35 36 36 34 33 32 31 31 30 28 26 24 21 19 16 12 10 10 12 17 18 16 17 19 19 19 18 19 16 17 17 18 19 22 22 24 26 26 26 27 28 29
34 34 33 32 30 29 29 28 27 26 23 20 16 15 14 11 10 11 13 16 21 18 18 20 18 19 19 18 16 16 16 17 17 20 22 23 24 24 24 26 25 24 29
32 31 31 30 28 26 25 24 23 20 16 13 14 17 16 15 10 9 16 16 16 18 21 17 16 17 17 15 15 15 15 15 16 17 18 21 21 21 22 24 24 27 26

GFSMW_sfc_30mbdewp_066.txt.gz
Dewpoint
47 53 51 49 49 50 51 50 50 53 54 52 52 51 53 52 51 51 53 59 59 59 59 56 56 53 52 49 48 49 46 42 43 41 41 41 41 39 38 37 36 35 35
45 46 47 48 49 50 52 51 51 53 53 52 52 50 51 52 50 51 53 58 59 60 60 59 57 54 52 51 50 48 46 44 44 41 42 38 40 39 39 38 37 36 35
43 46 48 48 49 50 51 50 50 51 52 51 51 50 50 50 50 50 53 58 60 60 59 59 58 55 53 52 51 49 48 44 45 42 40 38 37 37 40 38 37 37 35
42 45 48 48 49 50 51 50 49 49 51 53 51 50 46 45 48 49 52 58 60 60 59 58 58 55 53 50 50 50 48 46 44 42 39 35 37 36 35 36 37 36 35
42 44 45 49 49 50 51 51 51 50 51 52 52 51 48 48 47 50 50 57 58 58 58 57 57 53 53 52 53 49 48 47 45 42 37 38 37 39 37 34 33 35 34
40 44 47 48 50 51 52 52 52 51 51 53 53 54 51 50 48 50 51 58 58 58 58 56 54 53 52 52 53 52 50 50 44 39 36 37 37 35 35 31 30 31 30
38 40 44 48 50 51 53 53 52 51 51 53 55 54 56 54 52 50 53 58 57 57 56 55 54 53 52 52 51 51 50 44 40 38 38 37 36 35 34 31 29 28 30
39 39 39 46 49 51 53 54 53 52 52 53 55 56 56 57 55 55 57 57 57 57 57 55 54 53 52 51 51 49 45 44 44 41 39 39 38 37 33 30 30 29 29
34 40 41 41 47 49 52 54 54 54 53 53 55 56 57 57 57 57 58 58 58 58 57 56 53 51 50 51 48 45 43 43 42 41 39 40 38 36 34 34 33 31 28
32 33 40 43 43 49 51 54 54 54 55 55 56 57 58 59 59 59 59 58 58 54 53 51 50 50 48 45 44 45 43 42 40 40 40 39 38 38 35 35 33 32 30
34 36 38 42 45 46 49 53 54 54 54 55 56 57 59 60 60 59 58 58 57 55 53 52 49 47 44 44 44 43 41 39 39 39 38 37 39 38 36 35 34 31 30
31 37 39 40 42 47 48 53 55 55 55 56 57 58 60 60 58 57 57 57 55 54 51 48 45 44 44 45 42 41 40 38 38 38 39 40 40 37 36 34 33 32 30
28 36 40 41 42 44 47 52 55 55 56 58 58 59 58 57 54 52 50 49 48 47 45 45 44 45 43 42 41 40 39 39 39 40 40 40 38 36 34 34 33 32 31
27 30 37 41 44 47 49 54 57 57 56 56 54 51 50 49 48 47 46 46 45 45 45 45 43 42 41 40 40 40 40 41 41 41 40 39 37 35 35 34 33 32 31
27 29 35 43 47 54 55 55 54 53 52 50 49 47 47 46 46 45 45 45 45 44 43 42 42 41 40 40 40 41 41 40 39 39 39 37 37 35 34 32 32 31 31
34 34 35 46 54 54 52 52 50 49 49 47 46 47 46 46 45 44 43 43 42 42 41 41 41 40 41 41 41 40 39 38 37 38 38 37 34 34 34 33 32 31 30
39 40 41 51 53 52 51 50 48 47 47 47 46 45 45 44 44 43 42 41 41 41 41 40 40 40 40 39 39 38 38 38 36 33 31 31 29 29 29 30 30 32 32
42 44 49 51 51 51 50 49 48 47 46 45 45 45 44 43 42 41 41 41 41 39 39 39 39 40 40 39 39 39 37 32 30 30 29 29 29 30 31 30 30 30 30
44 47 49 49 49 49 49 48 46 45 45 44 43 41 41 40 40 40 39 39 39 39 40 40 40 39 32 32 30 29 31 31 30 30 28 27 25 26 27 26 26 27 29
44 45 46 46 46 45 44 43 42 41 40 40 40 41 40 39 39 39 40 40 39 39 38 32 29 26 30 27 25 24 26 26 25 25 24 24 24 25 26 26 27 26 26
41 43 43 42 42 42 42 41 40 40 40 40 40 39 39 40 40 39 39 37 30 30 30 30 31 28 28 27 25 24 23 22 21 21 21 22 23 23 23 23 23 22 23
39 41 41 41 40 40 40 40 39 39 39 39 38 37 36 33 31 28 26 25 29 29 28 24 23 25 26 25 23 21 20 19 19 19 20 21 21 22 23 24 25 26 27
39 39 39 39 40 40 40 39 38 38 36 34 31 28 26 26 26 26 23 21 21 21 21 20 22 23 23 25 22 18 17 18 19 19 19 19 20 22 24 26 27 27 26
37 37 38 39 39 39 38 37 35 34 32 29 27 25 22 18 14 12 14 22 23 20 18 19 21 23 21 21 19 18 18 18 19 18 19 20 21 22 22 22 22 24 24
36 37 37 38 37 35 34 33 32 31 28 26 21 16 15 14 14 17 18 23 18 20 21 22 20 20 20 18 17 16 17 17 17 18 18 19 19 18 18 18 20 20 22
36 37 36 34 31 31 30 29 28 26 21 18 20 22 19 16 13 17 16 19 18 21 20 17 17 17 17 15 15 15 15 15 16 17 17 16 16 16 16 16 17 18 19

GFSMW_sfc_30mbdewp_069.txt.gz
Dewpoint
53 54 52 52 52 53 52 50 52 52 53 51 48 51 50 52 52 53 56 56 56 57 56 56 54 52 49 49 48 47 47 44 42 40 40 41 41 38 38 34 34 34 35
52 53 52 52 51 48 48 48 49 49 53 53 53 53 52 52 52 52 54 57 56 57 57 56 55 52 50 51 48 47 47 44 43 39 41 39 41 40 38 39 37 35 36
51 51 49 50 49 45 46 46 49 51 53 52 52 51 53 52 51 51 51 58 59 59 59 58 58 54 52 51 50 48 47 44 46 42 40 38 38 38 39 39 39 38 36
51 50 48 48 49 49 49 49 49 52 53 52 51 50 49 50 50 50 52 57 59 60 60 59 59 56 54 53 52 52 50 47 46 44 39 37 38 36 36 37 39 38 37
46 47 47 48 48 49 51 51 51 51 52 52 51 50 49 49 50 50 50 58 59 59 59 59 58 57 55 53 52 52 51 51 51 46 40 41 41 40 36 35 35 35 36
46 47 47 48 49 50 50 50 50 50 50 51 52 52 50 48 47 50 51 55 59 59 59 59 58 57 54 53 52 53 52 51 49 48 44 43 41 40 37 35 33 29 30
45 46 48 47 48 49 50 50 50 50 49 49 51 52 52 50 47 48 51 56 57 58 58 57 56 55 53 52 53 52 51 48 47 45 44 43 42 39 39 38 35 32 30
41 45 46 48 48 48 49 50 50 51 50 50 51 52 53 52 52 50 52 56 57 57 57 56 54 53 53 52 51 50 47 45 45 44 43 42 41 41 40 38 36 32 30
39 42 46 47 49 49 49 51 50 50 51 51 55 54 53 55 53 52 55 56 57 57 56 56 54 52 51 51 49 47 46 45 44 43 42 40 40 40 40 39 37 33 30
38 40 42 48 49 50 52 52 52 51 51 52 53 56 55 55 57 55 57 57 58 57 56 55 53 51 50 48 47 45 44 43 43 42 40 40 40 39 39 39 37 35 33
32 36 40 45 49 50 51 53 53 53 53 53 54 54 56 58 58 58 58 59 58 55 54 52 51 49 47 46 45 44 43 41 40 40 40 40 40 38 39 39 37 35 33
34 36 40 42 47 49 50 53 54 54 54 54 55 56 58 59 59 59 58 57 55 54 53 50 48 47 46 45 44 42 41 40 40 40 38 38 38 39 40 39 37 35 33
36 38 39 41 43 48 50 52 55 57 58 59 59 59 58 59 58 55 54 54 52 51 49 48 46 45 45 43 42 41 41 40 40 39 39 39 40 40 39 38 36 34 33
32 38 40 41 49 54 55 55 56 59 56 55 53 51 50 50 49 49 48 48 47 46 46 45 45 43 42 42 41 41 40 40 40 41 42 41 40 39 38 36 34 34 33
28 36 40 47 53 53 52 51 51 52 51 50 49 47 47 47 47 46 46 45 45 44 44 43 43 42 42 41 40 40 40 40 41 40 39 39 39 38 37 36 35 33 33
33 35 48 53 52 52 51 49 49 49 49 48 47 47 46 45 45 45 44 43 43 43 42 42 41 41 41 40 40 41 41 39 38 37 38 38 37 33 32 32 31 32 32
37 43 52 53 52 51 50 49 48 48 47 47 46 46 45 44 44 43 42 42 42 42 41 41 41 40 40 40 41 40 39 38 37 36 32 31 30 30 28 27 27 27 29
40 52 53 52 51 50 49 48 47 47 46 45 45 45 44 43 42 42 41 41 41 40 40 40 40 39 39 39 39 38 38 36 32 30 28 27 25 25 27 25 24 25 26
47 51 52 51 50 49 48 47 47 46 46 45 44 44 43 42 42 41 40 40 39 39 38 39 39 37 33 34 31 31 30 27 26 25 23 23 23 25 25 24 22 20 19
48 49 50 50 49 48 48 46 45 45 44 44 43 42 41 41 40 39 39 39 39 39 40 39 34 30 27 25 26 26 25 21 20 21 22 22 23 24 24 22 22 22 22
47 48 47 47 47 47 46 44 43 42 41 41 41 41 40 39 39 40 40 39 38 33 31 30 30 28 27 26 25 23 20 19 18 20 20 21 21 20 21 24 24 25 26
45 45 44 43 43 43 42 41 40 41 41 41 40 40 40 40 40 39 36 32 31 30 28 25 27 27 25 24 22 21 20 20 18 19 20 20 19 21 23 24 24 24 24
42 42 42 41 41 41 41 40 40 40 39 38 38 37 35 31 28 26 28 27 27 24 22 23 24 25 24 21 20 18 18 18 19 19 18 18 20 21 23 20 18 21 22
40 40 40 40 40 40 39 39 39 37 36 32 28 26 24 22 19 24 24 22 21 20 20 22 23 22 20 19 18 17 17 18 18 18 18 19 20 21 19 18 17 18 18
38 39 39 40 39 38 37 36 35 32 29 26 22 19 19 18 20 23 21 18 20 22 21 20 20 19 19 18 17 16 17 17 18 18 18 18 17 16 16 15 15 15 15
38 39 38 34 33 32 32 32 31 27 22 20 20 19 19 18 15 18 18 20 19 19 20 18 16 19 18 15 15 16 16 16 17 17 17 14 13 13 14 14 13 13 13

GFSMW_sfc_30mbdewp_072.txt.gz
Dewpoint
54 53 53 53 53 53 54 54 53 54 54 51 51 51 51 53 53 55 55 56 57 56 55 54 54 52 50 48 46 45 44 45 42 39 39 39 39 36 36 35 39 40 37
53 52 52 52 53 53 53 52 53 53 54 52 49 51 51 52 53 54 55 56 56 57 56 55 54 51 50 49 48 47 46 46 44 39 40 38 40 41 39 37 35 35 35
52 52 52 51 52 52 52 50 52 52 52 53 49 51 52 51 52 51 53 56 56 56 56 56 55 53 51 50 49 48 46 45 46 44 42 40 39 39 40 39 39 38 37
52 52 51 51 51 50 50 49 49 48 51 53 49 50 47 49 49 51 51 54 57 57 57 57 56 54 53 51 51 49 48 47 46 47 43 43 42 39 37 37 38 40 39
51 51 50 50 50 48 47 46 47 48 50 53 50 51 51 52 51 51 50 52 57 58 58 58 57 56 55 53 53 53 50 49 48 47 44 43 44 44 41 40 38 37 37
50 51 49 49 45 44 45 46 46 48 50 53 52 51 50 50 50 51 50 52 57 58 59 59 58 58 56 54 54 53 52 51 50 47 45 45 44 43 43 41 40 36 32
50 50 48 47 46 45 45 47 48 48 50 52 52 51 50 50 49 50 50 50 54 57 58 58 58 57 56 55 53 52 52 51 50 49 46 45 45 42 41 38 37 35 34
48 49 49 47 47 48 48 49 49 49 51 52 52 52 53 51 51 49 50 51 52 55 58 58 57 56 55 53 52 52 50 49 48 48 46 45 44 42 41 40 39 37 35
46 47 47 47 48 48 49 51 50 50 50 50 50 50 51 53 52 51 50 52 55 56 57 57 56 55 54 52 51 50 48 47 46 46 45 44 42 42 41 41 40 38 35
45 46 47 47 48 49 49 50 50 50 50 50 50 50 50 54 54 53 53 54 56 56 56 55 54 53 52 51 50 48 46 46 45 44 43 42 41 41 41 40 39 38 36
40 43 46 48 48 48 49 50 50 49 50 50 51 50 51 52 55 55 56 57 57 57 57 57 54 53 52 50 48 46 45 45 43 42 41 40 40 40 39 40 40 38 36
38 40 43 46 47 49 49 48 50 50 51 54 55 56 56 57 56 57 58 58 56 55 56 54 53 51 49 48 46 45 44 43 42 41 40 40 40 38 39 39 39 37 36
34 39 41 42 44 49 49 50 51 53 57 57 57 58 58 58 58 58 58 55 53 55 53 51 50 48 46 45 44 44 43 42 41 41 40 39 39 39 40 39 39 38 37
33 36 40 46 50 52 51 52 54 56 56 54 56 57 57 56 57 56 55 54 53 50 49 49 47 46 44 43 43 42 41 41 40 40 40 41 41 40 39 39 37 36 34
35 37 41 52 53 53 54 54 54 55 55 52 52 51 50 50 49 49 49 48 48 47 47 45 44 43 43 43 42 42 41 40 40 41 41 40 39 39 38 36 33 31 31
29 37 43 52 52 52 52 52 51 51 51 49 48 48 48 47 47 46 45 45 45 44 44 43 42 42 42 41 41 41 41 41 39 38 37 37 31 30 29 28 27 27 26
38 42 45 52 52 51 50 50 50 50 49 48 47 47 47 46 45 44 44 43 43 43 42 42 41 41 41 40 41 41 40 38 37 33 30 28 25 27 26 25 24 24 25
43 46 50 51 50 50 50 49 49 49 48 47 46 46 45 44 43 43 43 42 42 41 41 41 40 40 40 40 40 38 37 32 29 26 25 23 22 26 24 23 21 21 20
47 51 52 51 49 48 48 48 47 47 46 46 45 44 44 43 42 42 41 40 40 40 40 40 40 38 38 39 38 34 29 26 23 22 22 22 21 23 22 22 21 22 23
50 51 51 50 49 48 48 47 46 46 45 45 44 43 43 42 41 41 40 39 39 39 39 39 34 31 31 32 29 27 23 20 18 19 20 21 21 21 21 23 24 23 23
50 51 51 50 49 48 47 46 45 44 45 44 43 42 41 40 40 40 39 39 38 37 35 32 28 27 27 26 24 22 19 18 16 17 18 20 20 20 23 24 24 22 21
49 50 49 49 48 47 45 44 42 41 42 41 40 40 40 40 39 39 39 37 33 30 29 27 25 25 24 24 23 21 21 19 17 17 19 19 20 22 23 20 18 17 21
46 46 45 44 44 43 42 41 41 41 40 40 40 40 39 39 38 36 34 32 29 27 27 26 24 22 21 21 20 19 18 19 18 19 18 19 20 22 20 17 16 18 18
43 43 43 42 41 41 41 40 40 39 38 36 35 32 27 26 26 26 27 27 25 24 26 25 24 22 20 18 18 17 18 17 18 18 18 18 20 19 17 17 16 16 16
41 41 41 40 39 39 38 38 37 35 31 26 23 22 23 23 21 20 20 22 24 24 23 23 23 21 19 18 17 17 17 17 18 18 18 18 15 14 14 15 14 14 13
40 38 36 33 29 30 31 31 29 26 23 20 20 21 20 20 18 16 20 23 22 23 22 20 19 21 20 17 17 16 16 16 17 17 15 12 11 11 13 12 12 11 11